This is the latest recevied weather packets stored in our database for station/object N5SRF. If no packets are shown the sender has not sent any weather packets the latest 10 day(s).
| Time | Temp. | Humidity | Pressure | Rain* | Wind** | Luminosity | Snow |
|---|---|---|---|---|---|---|---|
| 1777988619 | 22.78° C | 94% | 1013 hPa | 0 mm | - | 99 W/m² | - |
| 1777988315 | 22.78° C | 95% | 1013.1 hPa | 0 mm | - | 88 W/m² | - |
| 1777988012 | 22.22° C | 95% | 1013.3 hPa | 0 mm | - | 76 W/m² | - |
| 1777987708 | 22.78° C | 94% | 1013.4 hPa | 0 mm | - | 41 W/m² | - |
| 1777987405 | 22.78° C | 94% | 1013.5 hPa | 0 mm | - | 36 W/m² | - |
| 1777987102 | 22.78° C | 94% | 1013.4 hPa | 0 mm | - | 69 W/m² | - |
| 1777986800 | 22.22° C | 94% | 1013.3 hPa | 0 mm | - | 84 W/m² | - |
| 1777986497 | 22.22° C | 94% | 1013.4 hPa | 0 mm | - | 63 W/m² | - |
| 1777986195 | 22.22° C | 95% | 1013.1 hPa | 0 mm | - | 45 W/m² | - |
| 1777985892 | 22.22° C | 95% | 1013.2 hPa | 0 mm | - | 62 W/m² | - |
| 1777985590 | 22.22° C | 95% | 1013 hPa | 0 mm | - | 101 W/m² | - |
| 1777985286 | 22.22° C | 95% | 1012.8 hPa | 0 mm | - | 88 W/m² | - |
| 1777984983 | 21.67° C | 96% | 1012.8 hPa | 0 mm | - | 84 W/m² | - |
| 1777984679 | 21.67° C | 96% | 1012.6 hPa | 0 mm | - | 88 W/m² | - |
| 1777984375 | 21.67° C | 96% | 1012.5 hPa | 0 mm | - | 62 W/m² | - |
| 1777984072 | 21.67° C | 96% | 1012.6 hPa | 0 mm | - | 46 W/m² | - |
| 1777983770 | 21.67° C | 96% | 1012.5 hPa | 0 mm | - | 48 W/m² | - |
| 1777983466 | 21.67° C | 96% | 1012.8 hPa | 0 mm | - | 41 W/m² | - |
| 1777983162 | 21.11° C | 97% | 1012.7 hPa | 0 mm | - | 44 W/m² | - |
| 1777982859 | 21.11° C | 97% | 1012.7 hPa | 0 mm | - | 28 W/m² | - |
| 1777982555 | 21.11° C | 97% | 1012.7 hPa | 0 mm | - | 12 W/m² | - |
| 1777982254 | 21.11° C | 97% | 1012.5 hPa | 0 mm | - | 9 W/m² | - |
| 1777981952 | 21.11° C | 97% | 1012.7 hPa | 0 mm | - | 5 W/m² | - |
| 1777981649 | 21.11° C | 97% | 1012.5 hPa | 0 mm | - | 5 W/m² | - |
| 1777981344 | 21.11° C | 97% | 1012.7 hPa | 0 mm | - | 4 W/m² | - |
* Rain latest hour (hover to see other rain measurements)
** Current wind speed in m/s (hover to see current wind gust speed)